DW8356 Weather Reports


Display with metric or nautical units.
time (UTC)temp
F
wind
direction
speed
MPH
gust
MPH
rain 1hr
in
rain 24hr
in
rain mn
in
humidity
%
barometer
mb
20260506095021 56 9 3.0 10.0 0.00 0.00 0.00 72 1010.8
20260506094540 56 40 5.0 10.0 0.00 0.00 0.00 72 1010.8
20260506094020 56 352 3.0 10.0 0.00 0.00 0.00 72 1010.8
20260506093522 57 342 5.0 10.0 0.00 0.00 0.00 72 1010.9
20260506093038 57 76 4.0 10.0 0.00 0.00 0.00 72 1010.8
20260506092522 57 329 6.0 10.0 0.00 0.00 0.00 71 1010.7
20260506092019 57 25 4.0 10.0 0.00 0.00 0.00 71 1010.7
20260506091538 57 78 4.0 10.0 0.00 0.00 0.00 71 1010.6
20260506091020 57 352 4.0 10.0 0.00 0.00 0.00 72 1010.5
20260506090524 58 67 3.0 9.0 0.00 0.00 0.00 73 1010.4
20260506090037 58 351 2.0 10.0 0.00 0.00 0.00 73 1010.4
20260506085523 58 53 3.0 10.0 0.00 0.00 0.00 73 1010.5
20260506085021 58 29 3.0 9.0 0.00 0.00 0.00 73 1010.4
20260506084541 58 22 3.0 9.0 0.00 0.00 0.00 72 1010.3
20260506084020 58 332 3.0 9.0 0.00 0.00 0.00 73 1010.2
20260506083524 58 351 2.0 8.0 0.00 0.00 0.00 73 1010.3
20260506083041 58 41 4.0 8.0 0.00 0.00 0.00 73 1010.2
20260506082521 58 344 3.0 10.0 0.00 0.00 0.00 72 1010.2
20260506082021 58 347 3.0 10.0 0.00 0.00 0.00 72 1010.2
20260506081538 58 328 4.0 8.0 0.00 0.00 0.00 72 1010.3
20260506081028 58 352 3.0 5.0 0.00 0.00 0.00 72 1009.9
20260506080520 58 61 2.0 7.0 0.00 0.00 0.00 73 1009.8
20260506073519 58 17 2.0 9.0 0.00 0.00 0.00 74 1009.9
20260506073039 58 30 3.0 12.0 0.00 0.00 0.00 74 1009.8
20260506072519 58 32 4.0 12.0 0.00 0.00 0.00 74 1010.0
20260506072021 58 53 6.0 12.0 0.00 0.00 0.00 73 1010.1
20260506071537 58 37 4.0 10.0 0.00 0.00 0.00 74 1010.1
20260506071023 58 360 4.0 11.0 0.00 0.00 0.00 74 1010.1
20260506070522 58 19 4.0 11.0 0.00 0.00 0.00 74 1010.0
20260506062021 59 17 4.0 11.0 0.00 0.00 0.00 74 1009.9
20260506061538 59 323 4.0 11.0 0.00 0.00 0.00 74 1010.0
20260506061020 60 38 5.0 11.0 0.00 0.00 0.00 74 1009.9
20260506060522 60 352 4.0 11.0 0.00 0.00 0.00 74 1010.0
20260506051021 61 10 5.0 15.0 0.00 0.00 0.00 75 1010.1
20260506050523 61 311 5.0 12.0 0.00 0.00 0.00 75 1010.0
20260506045025 62 338 5.0 12.0 0.00 0.00 0.00 75 1010.0
20260506044539 62 345 3.0 10.0 0.00 0.00 0.00 75 1009.8
20260506044021 62 325 4.0 13.0 0.00 0.00 0.00 75 1009.8
20260506043523 62 281 7.0 14.0 0.00 0.00 0.00 75 1009.7
20260506043038 62 32 6.0 14.0 0.00 0.00 0.00 75 1009.7
20260506042524 63 37 7.0 14.0 0.00 0.00 0.00 74 1009.7
20260506042021 63 352 6.0 12.0 0.00 0.00 0.00 75 1009.7
20260506041536 63 348 4.0 12.0 0.00 0.00 0.00 74 1009.6
20260506041022 63 336 6.0 11.0 0.00 0.00 0.00 75 1009.4
20260506040522 63 15 5.0 11.0 0.00 0.00 0.00 75 1009.3
20260506040039 64 5 5.0 13.0 0.00 0.00 0.00 75 1009.2
20260506035522 64 122 4.0 14.0 0.00 0.00 0.00 75 1009.3
20260506035023 64 346 7.0 14.0 0.00 0.00 0.00 74 1009.2
20260506034538 64 352 6.0 14.0 0.00 0.00 0.00 74 1009.2
20260506034021 65 322 4.0 12.0 0.00 0.00 0.00 74 1009.0
20260506033521 65 308 5.0 14.0 0.00 0.00 0.00 74 1009.0
20260506033041 65 329 5.0 14.0 0.00 0.00 0.00 74 1009.0
20260506032520 66 352 6.0 14.0 0.00 0.00 0.00 73 1009.1
20260506032021 66 306 6.0 13.0 0.00 0.00 0.00 73 1008.9
20260506031538 67 15 5.0 13.0 0.00 0.00 0.00 73 1008.9
20260506031019 67 298 4.0 10.0 0.00 0.00 0.00 73 1008.6
20260506030525 68 350 5.0 13.0 0.00 0.00 0.00 72 1008.5
20260506030037 68 325 5.0 13.0 0.00 0.00 0.00 72 1008.4
20260506025519 69 352 4.0 11.0 0.00 0.00 0.00 72 1008.4
20260506025021 69 55 4.0 11.0 0.00 0.00 0.00 72 1008.2
20260506024536 69 344 5.0 11.0 0.00 0.00 0.00 72 1008.2
20260506024023 69 336 3.0 11.0 0.00 0.00 0.00 72 1007.8
20260506023519 69 323 4.0 11.0 0.00 0.00 0.00 72 1007.7
20260506023051 69 63 5.0 12.0 0.00 0.00 0.00 72 1007.5
20260506022521 70 10 6.0 12.0 0.00 0.00 0.00 71 1007.4
20260506022021 70 305 5.0 12.0 0.00 0.00 0.00 71 1007.3
20260506021540 70 328 6.0 12.0 0.00 0.00 0.00 71 1007.3
20260506021023 71 360 4.0 11.0 0.00 0.00 0.00 71 1007.2
20260506020521 71 339 5.0 12.0 0.00 0.00 0.00 70 1006.9
20260506020039 72 40 6.0 12.0 0.00 0.00 0.00 70 1006.7
20260506015521 72 351 4.0 10.0 0.00 0.00 0.00 70 1006.8
20260506015026 73 13 4.0 10.0 0.00 0.00 0.00 69 1006.8
20260506014540 73 352 3.0 8.0 0.00 0.00 0.00 68 1006.8
20260506014019 73 38 3.0 8.0 0.00 0.00 0.00 68 1006.3
20260506013521 73 5 2.0 9.0 0.00 0.00 0.00 68 1006.6
20260506013037 73 10 4.0 9.0 0.00 0.00 0.00 67 1006.5
20260506012521 73 43 2.0 10.0 0.00 0.00 0.00 67 1006.5
20260506012024 73 344 3.0 10.0 0.00 0.00 0.00 67 1006.6
20260506011535 73 51 3.0 14.0 0.00 0.00 0.00 66 1006.4
20260506011021 73 29 5.0 14.0 0.00 0.00 0.00 66 1006.1
20260506010521 74 352 5.0 12.0 0.00 0.00 0.00 65 1006.2
20260506010049 74 15 4.0 12.0 0.00 0.00 0.00 65 1006.1
20260506005520 74 352 6.0 12.0 0.00 0.00 0.00 64 1005.5
20260506005021 75 317 5.0 11.0 0.00 0.00 0.00 64 1005.5
20260506004543 75 48 2.0 13.0 0.00 0.00 0.00 65 1006.0
20260506004021 75 32 3.0 13.0 0.00 0.00 0.00 64 1005.7
20260506003521 75 329 6.0 11.0 0.00 0.00 0.00 64 1005.8
20260506003038 76 327 4.0 11.0 0.00 0.00 0.00 64 1005.8
20260506002519 76 307 4.0 11.0 0.00 0.00 0.00 64 1005.7
20260506002021 77 321 4.0 11.0 0.00 0.00 0.00 63 1005.7
20260506001544 78 334 4.0 13.0 0.00 0.00 0.00 63 1005.7
20260506001021 78 287 5.0 13.0 0.00 0.00 0.00 62 1005.6
20260506000521 79 32 3.0 12.0 0.00 0.00 0.00 61 1005.3
20260506000037 79 326 4.0 12.0 0.00 0.00 0.00 60 1005.1
20260505235523 79 352 3.0 9.0 0.00 0.00 0.00 59 1005.1
20260505235025 80 12 3.0 13.0 0.00 0.00 0.00 60 1005.1
20260505234556 80 336 4.0 13.0 0.00 0.00 0.00 60 1005.1
20260505234021 81 324 4.0 15.0 0.00 0.00 0.00 58 1004.9
20260505233522 81 352 5.0 15.0 0.00 0.00 0.00 57 1005.0
20260505233039 82 5 6.0 17.0 0.00 0.00 0.00 56 1005.0
20260505232522 83 5 7.0 17.0 0.00 0.00 0.00 55 1004.7
20260505232022 84 299 5.0 10.0 0.00 0.00 0.00 52 1004.6
20260505231539 85 336 2.0 10.0 0.00 0.00 0.00 50 1004.7
20260505231021 85 331 5.0 11.0 0.00 0.00 0.00 49 1004.5
20260505230519 85 276 5.0 13.0 0.00 0.00 0.00 48 1004.4
20260505230038 86 325 4.0 13.0 0.00 0.00 0.00 47 1004.2
20260505225521 86 348 4.0 10.0 0.00 0.00 0.00 46 1004.1
20260505225022 87 66 5.0 13.0 0.00 0.00 0.00 46 1004.2
20260505224539 88 331 6.0 13.0 0.00 0.00 0.00 45 1004.1
20260505224021 89 43 1.0 4.0 0.00 0.00 0.00 50 1004.1
20260505223528 90 0 0.0 3.0 0.00 0.00 0.00 51 1003.9
20260505223040 89 0 1.0 3.0 0.00 0.00 0.00 50 1003.6
20260505222522 90 0 1.0 2.0 0.00 0.00 0.00 51 1003.5
20260505222022 90 161 0.0 4.0 0.00 0.00 0.00 52 1003.6
20260505221532 90 163 0.0 4.0 0.00 0.00 0.00 51 1003.4
20260505221027 90 207 1.0 4.0 0.00 0.00 0.00 51 1003.4
20260505220519 90 325 1.0 4.0 0.00 0.00 0.00 51 1003.6
20260505220036 90 302 0.0 3.0 0.00 0.00 0.00 51 1003.7
20260505215522 90 293 0.0 2.0 0.00 0.00 0.00 50 1003.8
20260505215021 90 0 0.0 2.0 0.00 0.00 0.00 51 1003.8
20260505214559 90 227 1.0 3.0 0.00 0.00 0.00 51 1003.9
20260505214022 90 244 1.0 4.0 0.00 0.00 0.00 50 1003.8
20260505213521 91 247 1.0 10.0 0.00 0.00 0.00 50 1003.8
20260505213042 91 135 3.0 10.0 0.00 0.00 0.00 50 1004.0
20260505212524 91 163 0.0 6.0 0.00 0.00 0.00 49 1004.0
20260505212021 90 214 1.0 6.0 0.00 0.00 0.00 52 1004.1
20260505211535 90 88 1.0 5.0 0.00 0.00 0.00 50 1004.0
20260505211024 91 165 1.0 5.0 0.00 0.00 0.00 51 1004.2
20260505210520 90 0 0.0 5.0 0.00 0.00 0.00 52 1004.2
20260505210040 91 211 1.0 5.0 0.00 0.00 0.00 53 1004.2
20260505205522 91 225 1.0 4.0 0.00 0.00 0.00 53 1004.2
20260505205022 90 202 1.0 4.0 0.00 0.00 0.00 54 1004.3
20260505204548 89 138 1.0 4.0 0.00 0.00 0.00 56 1004.3
20260505204022 91 210 1.0 5.0 0.00 0.00 0.00 54 1004.4
20260505203521 90 339 1.0 5.0 0.00 0.00 0.00 54 1004.6
20260505203046 89 334 1.0 9.0 0.00 0.00 0.00 57 1004.7
20260505202522 90 136 2.0 9.0 0.00 0.00 0.00 55 1004.6
20260505202022 89 179 1.0 7.0 0.00 0.00 0.00 57 1004.6
20260505201539 89 186 1.0 8.0 0.00 0.00 0.00 54 1004.7
20260505201021 90 216 1.0 8.0 0.00 0.00 0.00 53 1004.7
20260505200522 90 229 2.0 7.0 0.00 0.00 0.00 54 1004.5
20260505200046 89 199 1.0 4.0 0.00 0.00 0.00 55 1004.8
20260505195522 90 311 1.0 5.0 0.00 0.00 0.00 56 1004.8
20260505195022 89 242 1.0 5.0 0.00 0.00 0.00 57 1004.8
20260505194544 88 183 1.0 4.0 0.00 0.00 0.00 57 1004.8
20260505194023 88 265 1.0 5.0 0.00 0.00 0.00 57 1004.8
20260505193523 89 158 2.0 5.0 0.00 0.00 0.00 56 1004.9
20260505193042 88 225 1.0 4.0 0.00 0.00 0.00 60 1004.7
20260505192523 88 360 1.0 5.0 0.00 0.00 0.00 59 1004.8
20260505192023 87 148 1.0 5.0 0.00 0.00 0.00 59 1004.9
20260505191538 87 261 2.0 6.0 0.00 0.00 0.00 58 1004.9
20260505191023 87 182 1.0 6.0 0.00 0.00 0.00 61 1004.8
20260505190523 87 196 2.0 4.0 0.00 0.00 0.00 61 1004.9
20260505190039 86 203 1.0 7.0 0.00 0.00 0.00 61 1004.9
20260505185522 85 28 2.0 7.0 0.00 0.00 0.00 62 1004.9
20260505185021 85 229 1.0 7.0 0.00 0.00 0.00 63 1005.0
20260505184538 84 216 2.0 7.0 0.00 0.00 0.00 63 1004.9
20260505184021 84 227 1.0 6.0 0.00 0.00 0.00 64 1005.1
20260505183521 84 236 1.0 6.0 0.00 0.00 0.00 64 1005.0
20260505183038 84 169 1.0 9.0 0.00 0.00 0.00 65 1005.0
20260505182522 84 170 2.0 9.0 0.00 0.00 0.00 64 1005.0
20260505182021 84 211 1.0 5.0 0.00 0.00 0.00 64 1005.0
20260505181537 84 195 1.0 7.0 0.00 0.00 0.00 64 1005.2
20260505181021 84 188 2.0 9.0 0.00 0.00 0.00 63 1005.2
20260505180522 84 360 2.0 9.0 0.00 0.00 0.00 64 1005.1
20260505175523 84 191 3.0 7.0 0.00 0.00 0.00 64 1005.0
20260505175025 84 165 1.0 6.0 0.00 0.00 0.00 63 1005.0
20260505174556 84 175 2.0 7.0 0.00 0.00 0.00 64 1005.0
20260505174022 83 209 2.0 7.0 0.00 0.00 0.00 64 1005.2
20260505173524 83 134 1.0 7.0 0.00 0.00 0.00 65 1005.0
20260505173044 83 159 3.0 7.0 0.00 0.00 0.00 65 1005.0
20260505172521 82 215 2.0 7.0 0.00 0.00 0.00 65 1005.2
20260505172021 82 263 1.0 7.0 0.00 0.00 0.00 66 1005.2
20260505171537 82 209 2.0 7.0 0.00 0.00 0.00 66 1005.4
20260505171021 81 148 1.0 8.0 0.00 0.00 0.00 66 1005.2
20260505170521 82 208 3.0 8.0 0.00 0.00 0.00 66 1005.5
20260505170037 82 200 2.0 9.0 0.00 0.00 0.00 66 1005.2
20260505165522 82 263 2.0 9.0 0.00 0.00 0.00 66 1005.4
20260505165024 82 145 2.0 5.0 0.00 0.00 0.00 67 1005.4
20260505164535 82 241 1.0 5.0 0.00 0.00 0.00 67 1005.3
20260505164021 81 123 1.0 7.0 0.00 0.00 0.00 67 1005.4
20260505163521 81 215 2.0 7.0 0.00 0.00 0.00 67 1005.3
20260505163039 80 242 2.0 7.0 0.00 0.00 0.00 68 1005.2
20260505162521 80 240 2.0 7.0 0.00 0.00 0.00 69 1005.2
20260505162021 80 304 2.0 7.0 0.00 0.00 0.00 69 1005.1
20260505161539 80 187 2.0 9.0 0.00 0.00 0.00 69 1005.0
20260505161024 80 196 3.0 9.0 0.00 0.00 0.00 68 1005.0
20260505160523 80 318 2.0 9.0 0.00 0.00 0.00 69 1004.9
20260505153036 78 135 3.0 9.0 0.00 0.00 0.00 71 1004.7
20260505152521 78 197 3.0 9.0 0.00 0.00 0.00 72 1004.7
20260505152020 77 114 3.0 10.0 0.00 0.00 0.00 73 1004.9
20260505151535 77 185 3.0 10.0 0.00 0.00 0.00 73 1005.0
20260505151021 77 219 4.0 10.0 0.00 0.00 0.00 73 1005.1
20260505150521 77 154 3.0 8.0 0.00 0.00 0.00 73 1004.9
20260505140521 74 212 2.0 7.0 0.00 0.00 0.00 78 1005.0
20260505125018 72 186 3.0 8.0 0.00 0.00 0.00 81 1004.6
20260505124538 72 196 1.0 7.0 0.00 0.00 0.00 81 1004.5
20260505124018 72 77 2.0 9.0 0.00 0.00 0.00 81 1004.6
20260505123518 72 173 2.0 9.0 0.00 0.00 0.00 81 1004.5
20260505123037 72 155 2.0 9.0 0.00 0.00 0.00 81 1004.3
20260505122518 72 186 3.0 9.0 0.00 0.00 0.00 81 1004.1
20260505122022 72 232 3.0 9.0 0.00 0.00 0.00 81 1004.1
20260505121540 72 166 3.0 7.0 0.00 0.00 0.00 80 1004.2
20260505121021 72 176 2.0 9.0 0.00 0.00 0.00 80 1004.1
20260505120522 72 151 3.0 11.0 0.00 0.00 0.00 80 1004.1
20260505120041 72 234 3.0 11.0 0.00 0.00 0.00 81 1004.1
20260505115521 72 206 2.0 12.0 0.00 0.00 0.00 80 1004.2
20260505115018 72 189 3.0 12.0 0.00 0.00 0.00 81 1004.1
20260505114537 71 155 3.0 8.0 0.00 0.00 0.00 81 1004.0
20260505114021 72 208 2.0 11.0 0.00 0.00 0.00 80 1003.9
20260505113524 72 161 3.0 11.0 0.00 0.00 0.00 80 1003.9
20260505113036 72 156 3.0 10.0 0.00 0.00 0.00 80 1003.9
20260505112518 72 207 2.0 10.0 0.00 0.00 0.00 80 1003.7
20260505112018 72 205 3.0 14.0 0.00 0.00 0.00 80 1003.8
20260505111539 71 230 4.0 14.0 0.00 0.00 0.00 81 1003.9
20260505111018 71 200 3.0 7.0 0.00 0.00 0.00 81 1003.8
20260505110519 71 205 3.0 7.0 0.00 0.00 0.00 82 1004.0
20260505102025 71 195 3.0 9.0 0.00 0.00 0.00 80 1003.9
20260505101535 71 143 2.0 8.0 0.00 0.00 0.00 81 1004.0
20260505101021 71 194 3.0 7.0 0.00 0.00 0.00 80 1003.9
20260505100521 71 163 2.0 7.0 0.00 0.00 0.00 80 1003.9
20260505100035 71 161 3.0 9.0 0.00 0.00 0.00 80 1003.9
20260505095520 71 201 3.0 11.0 0.00 0.00 0.00 81 1003.9